Time,TemperatureF,DewpointF,PressureIn,WindDirection,WindDirectionDegrees,WindSpeedMPH,WindSpeedGustMPH,Humidity,HourlyPrecipIn,Conditions,Clouds,dailyrainin,SoftwareType,DateUTC
2013-03-23 07:50:00,79.6,73.3,29.99,ENE,63,7.0,11.0,81,0.00,,,0.00,Wunderground v.1.15,2013-03-23 11:50:00,
2013-03-23 08:00:00,80.7,73.6,29.99,East,87,8.0,10.0,79,0.00,,,0.00,Wunderground v.1.15,2013-03-23 12:00:00,
2013-03-23 08:10:00,80.3,73.2,30.00,ENE,76,8.0,10.0,79,0.00,,,0.00,Wunderground v.1.15,2013-03-23 12:10:00,
2013-03-23 08:20:00,80.1,73.0,30.01,East,82,9.0,9.0,79,0.00,,,0.00,Wunderground v.1.15,2013-03-23 12:20:00,
2013-03-23 08:30:00,81.4,74.3,30.01,East,84,9.0,9.0,79,0.00,,,0.00,Wunderground v.1.15,2013-03-23 12:30:00,
2013-03-23 08:40:00,81.8,73.9,30.01,ESE,117,8.0,8.0,77,0.00,,,0.00,Wunderground v.1.15,2013-03-23 12:40:00,
2013-03-23 08:50:00,83.0,73.4,30.01,East,96,8.0,8.0,73,0.00,,,0.00,Wunderground v.1.15,2013-03-23 12:50:00,
2013-03-23 09:00:00,83.0,73.9,30.01,East,89,8.0,13.0,74,0.00,,,0.00,Wunderground v.1.15,2013-03-23 13:00:00,
2013-03-23 09:10:00,83.8,73.8,30.02,ESE,102,8.0,9.0,72,0.00,,,0.00,Wunderground v.1.15,2013-03-23 13:10:00,
2013-03-23 09:20:00,83.8,73.8,30.02,East,84,9.0,9.0,72,0.00,,,0.00,Wunderground v.1.15,2013-03-23 13:20:00,
2013-03-23 09:30:00,84.0,74.0,30.02,East,87,8.0,10.0,72,0.00,,,0.00,Wunderground v.1.15,2013-03-23 13:30:00,
2013-03-23 09:40:00,83.4,73.8,30.03,East,94,8.0,12.0,73,0.00,,,0.00,Wunderground v.1.15,2013-03-23 13:40:00,
2013-03-23 09:50:00,84.1,73.7,30.03,ENE,69,7.0,8.0,71,0.00,,,0.00,Wunderground v.1.15,2013-03-23 13:50:00,
2013-03-23 10:00:00,84.5,73.6,30.03,ENE,71,8.0,8.0,70,0.00,,,0.00,Wunderground v.1.15,2013-03-23 14:00:00,
2013-03-23 10:10:00,84.7,74.3,30.03,ENE,58,8.0,10.0,71,0.00,,,0.00,Wunderground v.1.15,2013-03-23 14:10:00,
2013-03-23 10:20:00,84.3,73.0,30.04,ESE,119,10.0,10.0,69,0.00,,,0.00,Wunderground v.1.15,2013-03-23 14:20:00,
2013-03-23 10:30:00,84.9,74.0,30.04,SE,124,8.0,8.0,70,0.00,,,0.00,Wunderground v.1.15,2013-03-23 14:30:00,
2013-03-23 10:40:00,85.1,73.8,30.03,ESE,117,8.0,8.0,69,0.00,,,0.00,Wunderground v.1.15,2013-03-23 14:40:00,
2013-03-23 10:50:00,84.9,73.2,30.03,East,96,8.0,11.0,68,0.00,,,0.00,Wunderground v.1.15,2013-03-23 14:50:00,
2013-03-23 11:00:00,85.3,73.5,30.03,East,88,8.0,8.0,68,0.00,,,0.00,Wunderground v.1.15,2013-03-23 15:00:00,
2013-03-23 11:10:00,85.3,73.5,30.03,ESE,107,9.0,13.0,68,0.00,,,0.00,Wunderground v.1.15,2013-03-23 15:10:00,
2013-03-23 11:20:00,84.7,73.4,30.02,ESE,116,10.0,10.0,69,0.00,,,0.00,Wunderground v.1.15,2013-03-23 15:20:00,
2013-03-23 11:30:00,85.1,73.3,30.02,East,92,8.0,12.0,68,0.00,,,0.00,Wunderground v.1.15,2013-03-23 15:30:00,
2013-03-23 11:40:00,85.1,73.3,30.01,ESE,123,9.0,9.0,68,0.00,,,0.00,Wunderground v.1.15,2013-03-23 15:40:00,
2013-03-23 11:50:00,84.9,73.2,30.01,East,83,9.0,10.0,68,0.00,,,0.00,Wunderground v.1.15,2013-03-23 15:50:00,
2013-03-23 12:00:00,85.5,75.4,30.01,ESE,107,9.0,13.0,72,0.00,,,0.00,Wunderground v.1.15,2013-03-23 16:00:00,
2013-03-23 12:10:00,85.3,73.5,30.01,East,94,9.0,9.0,68,0.00,,,0.00,Wunderground v.1.15,2013-03-23 16:10:00,
2013-03-23 12:20:00,85.3,73.1,30.00,East,100,8.0,12.0,67,0.00,,,0.00,Wunderground v.1.15,2013-03-23 16:20:00,
2013-03-23 12:30:00,85.3,73.5,30.00,ENE,70,9.0,10.0,68,0.00,,,0.00,Wunderground v.1.15,2013-03-23 16:30:00,
2013-03-23 12:40:00,85.9,73.2,30.00,ESE,110,8.0,8.0,66,0.00,,,0.00,Wunderground v.1.15,2013-03-23 16:40:00,
2013-03-23 12:50:00,86.1,73.4,29.99,East,92,9.0,11.0,66,0.00,,,0.00,Wunderground v.1.15,2013-03-23 16:50:00,
2013-03-23 13:00:00,86.3,73.6,29.99,ESE,111,9.0,9.0,66,0.00,,,0.00,Wunderground v.1.15,2013-03-23 17:00:00,
2013-03-23 13:10:00,85.9,73.2,29.99,ESE,110,8.0,8.0,66,0.00,,,0.00,Wunderground v.1.15,2013-03-23 17:10:00,
2013-03-23 13:20:00,86.3,73.1,29.98,ESE,109,8.0,12.0,65,0.00,,,0.00,Wunderground v.1.15,2013-03-23 17:20:00,
2013-03-23 13:30:00,85.7,73.5,29.98,East,88,10.0,11.0,67,0.00,,,0.00,Wunderground v.1.15,2013-03-23 17:30:00,
2013-03-23 13:40:00,86.1,73.9,29.98,NE,51,10.0,12.0,67,0.00,,,0.00,Wunderground v.1.15,2013-03-23 17:40:00,
2013-03-23 13:50:00,87.0,73.3,29.97,East,84,9.0,9.0,64,0.00,,,0.00,Wunderground v.1.15,2013-03-23 17:50:00,
2013-03-23 14:00:00,85.7,72.6,29.97,ESE,114,10.0,10.0,65,0.00,,,0.00,Wunderground v.1.15,2013-03-23 18:00:00,
2013-03-23 14:10:00,85.1,72.9,29.96,East,84,10.0,10.0,67,0.00,,,0.00,Wunderground v.1.15,2013-03-23 18:10:00,
2013-03-23 14:20:00,85.3,72.6,29.96,East,85,9.0,14.0,66,0.00,,,0.00,Wunderground v.1.15,2013-03-23 18:20:00,
2013-03-23 14:30:00,85.3,72.6,29.96,East,82,10.0,13.0,66,0.00,,,0.00,Wunderground v.1.15,2013-03-23 18:30:00,
2013-03-23 14:40:00,84.7,72.5,29.95,East,92,11.0,11.0,67,0.00,,,0.00,Wunderground v.1.15,2013-03-23 18:40:00,
2013-03-23 14:50:00,84.7,72.5,29.95,East,88,9.0,9.0,67,0.00,,,0.00,Wunderground v.1.15,2013-03-23 18:50:00,
2013-03-23 15:00:00,85.1,72.5,29.95,ENE,72,10.0,14.0,66,0.00,,,0.00,Wunderground v.1.15,2013-03-23 19:00:00,
2013-03-23 15:10:00,84.5,72.3,29.94,ESE,105,8.0,11.0,67,0.00,,,0.00,Wunderground v.1.15,2013-03-23 19:10:00,
2013-03-23 15:20:00,85.1,72.5,29.94,ENE,78,9.0,11.0,66,0.00,,,0.00,Wunderground v.1.15,2013-03-23 19:20:00,
2013-03-23 15:30:00,84.1,72.4,29.94,SE,125,10.0,10.0,68,0.00,,,0.00,Wunderground v.1.15,2013-03-23 19:30:00,
2013-03-23 15:40:00,84.3,73.0,29.93,East,84,8.0,8.0,69,0.00,,,0.00,Wunderground v.1.15,2013-03-23 19:40:00,
2013-03-23 15:50:00,83.2,72.8,29.93,East,101,8.0,8.0,71,0.00,,,0.00,Wunderground v.1.15,2013-03-23 19:50:00,
2013-03-23 16:00:00,83.4,72.6,29.93,ESE,114,9.0,9.0,70,0.00,,,0.00,Wunderground v.1.15,2013-03-23 20:00:00,
2013-03-23 16:10:00,82.6,72.7,29.93,East,101,9.0,10.0,72,0.00,,,0.00,Wunderground v.1.15,2013-03-23 20:10:00,
2013-03-23 16:20:00,82.2,71.9,29.93,East,87,8.0,11.0,71,0.00,,,0.00,Wunderground v.1.15,2013-03-23 20:20:00,